Temperature
6 6 7 7 7 7 8 8 9 10 10 10 10 11 11 12 13 13 13 13 13 13 13 13 13 12 12 12 12 12 12 13 13 12 12 12 12 12 12 12 12 12 11 11
7 7 8 8 7 7 7 7 8 9 10 10 10 10 11 12 13 13 13 13 13 13 13 12 12 12 12 12 12 12 12 12 12 13 13 12 12 12 12 12 12 12 11 11
6 7 7 7 7 7 7 8 8 8 9 10 9 10 12 12 13 13 13 13 13 13 13 12 12 12 12 12 13 13 13 12 13 12 12 12 11 11 11 12 12 12 12 11
7 7 7 7 7 7 7 8 8 8 8 8 9 9 12 13 12 13 13 13 13 13 12 12 12 12 12 13 13 13 13 12 13 12 12 12 12 12 12 12 12 12 12 12
7 6 6 6 7 7 8 8 8 8 8 8 9 9 11 12 12 13 13 13 12 12 12 12 12 12 13 13 13 13 13 12 13 12 12 12 12 12 12 12 12 12 12 12
6 7 6 6 7 7 8 8 8 8 8 7 9 9 11 12 12 12 13 12 12 12 12 12 11 11 12 12 12 13 12 12 12 13 13 12 12 12 12 12 12 12 12 12
6 6 6 6 7 7 7 7 7 7 7 8 10 9 11 11 11 12 12 12 11 11 11 11 11 11 11 12 12 12 12 12 12 12 12 13 13 12 12 12 12 12 12 12
5 6 6 6 6 6 7 7 7 7 8 9 9 10 11 10 11 11 11 11 10 10 11 10 11 11 11 12 12 12 13 13 12 13 13 13 13 12 12 12 12 12 12 13
4 5 6 6 6 6 6 7 7 7 7 7 9 10 10 10 10 10 10 10 9 9 10 10 10 10 11 11 12 12 13 13 13 13 13 13 13 12 13 13 12 12 12 12
3 4 5 5 6 6 6 6 6 6 6 7 9 9 10 9 9 9 9 9 8 8 9 9 9 10 10 11 11 12 12 13 13 13 13 13 13 13 13 13 12 13 13 12
3 3 5 5 5 5 5 5 5 6 6 7 8 9 10 9 9 9 9 8 8 8 8 8 9 9 10 10 11 11 12 12 12 13 13 13 13 13 13 13 13 13 13 12
3 3 4 5 5 5 5 5 5 5 5 6 7 9 9 9 9 9 8 8 7 7 7 8 8 8 9 9 10 10 11 11 12 12 13 13 13 13 13 13 13 13 12 12
3 2 3 5 5 4 4 4 4 4 5 6 6 8 9 9 9 8 8 7 7 7 7 7 7 8 8 8 9 9 10 11 12 12 12 12 13 12 12 13 13 13 13 12
3 2 3 5 5 4 3 4 4 4 4 5 6 7 8 8 8 8 7 7 7 6 6 6 7 7 7 7 8 9 9 10 11 11 12 12 12 13 13 13 13 13 13 12
3 3 3 3 4 4 3 4 4 4 4 5 6 7 7 8 8 7 7 7 6 6 6 6 6 6 6 7 7 8 8 9 10 10 11 11 12 12 12 12 12 12 12 12
2 2 2 3 4 4 3 4 4 5 5 5 5 6 7 7 7 7 6 6 6 6 5 5 5 5 5 6 7 7 8 8 9 10 10 11 11 11 12 12 12 12 12 12
1 1 2 3 4 3 3 4 5 5 5 5 5 6 7 6 6 6 6 5 5 5 5 4 4 5 5 5 6 6 7 8 8 9 10 10 11 11 11 12 12 12 12 12
1 1 1 2 2 2 5 5 5 5 5 5 5 5 6 6 5 5 5 4 4 4 4 4 4 4 4 5 5 6 7 7 8 9 9 10 10 11 11 11 11 11 11 11
1 1 1 2 2 3 5 5 4 4 4 5 5 5 5 5 5 5 4 4 3 3 3 3 3 3 4 4 5 6 6 7 7 8 9 9 9 10 10 11 11 11 11 11
1 0 1 1 1 2 5 4 4 4 4 4 4 4 4 4 4 5 4 3 3 3 3 3 3 3 3 4 5 5 6 6 7 7 8 8 9 9 10 10 10 11 11 11
-0 -0 0 1 1 3 4 4 3 3 4 4 4 4 4 4 4 3 3 3 3 3 3 2 2 3 3 4 4 5 5 5 6 7 7 8 8 9 9 10 10 10 10 10
1 1 0 1 1 2 4 3 3 4 4 3 3 3 3 3 2 2 2 2 2 2 2 2 2 2 3 3 4 4 4 5 6 6 7 7 8 8 9 9 9 9 9 9
1 2 2 2 3 4 3 3 3 3 3 2 2 2 2 2 2 2 1 1 1 2 2 2 2 2 2 3 3 4 4 5 5 6 6 7 7 7 8 8 8 8 8 8
2 2 1 1 3 3 2 2 2 2 2 2 1 1 1 1 1 1 1 1 1 1 1 1 1 1 2 2 3 3 4 4 5 5 6 6 6 7 7 7 8 8 8 8
2 1 1 1 3 3 2 2 2 1 1 1 1 0 0 0 0 0 0 0 0 0 0 1 1 1 1 2 2 3 3 4 4 5 5 5 6 6 6 6 7 7 7 8
1 1 1 2 3 2 3 2 1 1 0 0 0 0 0 -0 -0 -0 -0 -0 -0 -0 0 0 0 1 1 1 2 2 3 3 3 4 4 5 5 5 5 6 6 6 6 7
Wind_Speed
3 4 6 7 8 11 10 12 14 14 10 10 17 21 20 17 16 17 16 15 15 16 15 13 14 15 16 16 18 19 18 17 15 14 14 14 14 13 12 12 15 16 16 17
4 6 7 7 7 9 10 11 13 11 8 9 15 19 19 16 16 16 16 16 16 15 13 12 13 14 15 17 18 19 20 19 18 15 15 13 13 11 12 11 14 17 17 17
6 6 5 5 6 8 10 11 11 11 10 9 12 14 14 13 14 14 15 15 16 14 14 12 12 14 15 18 19 18 20 19 19 18 13 11 10 9 10 13 13 16 17 17
6 6 5 6 8 8 9 7 9 9 8 6 6 9 11 9 10 11 12 12 13 13 12 11 11 13 15 17 17 19 19 19 19 18 17 18 16 15 15 14 13 15 17 17
6 5 6 8 8 8 7 7 9 10 9 9 9 8 8 6 9 10 10 10 10 10 10 10 10 12 14 15 15 17 18 19 19 20 21 20 18 16 13 14 16 16 16 17
9 6 6 6 7 7 5 6 7 7 6 7 8 8 7 4 6 7 7 8 8 8 8 8 8 8 10 11 13 15 17 18 19 20 22 22 22 19 17 17 16 15 13 14
6 5 3 4 5 3 3 2 2 3 4 6 4 7 7 4 5 6 6 6 5 6 6 7 7 7 8 10 12 14 17 18 18 20 22 24 23 22 21 19 18 16 14 14
5 5 2 2 3 3 5 4 3 4 5 6 5 8 4 3 4 5 5 5 6 6 5 6 6 7 8 9 12 14 16 17 18 20 21 22 22 18 17 19 17 17 15 16
4 5 2 3 4 4 3 4 4 5 6 7 6 6 6 5 6 7 7 7 7 7 6 6 6 6 7 8 10 12 15 17 17 19 20 20 21 20 19 19 18 16 15 15
3 6 5 4 4 5 6 3 3 4 4 6 7 8 5 4 6 7 8 8 9 9 8 7 6 6 7 7 7 10 13 15 17 17 18 16 19 20 20 18 19 19 18 17
3 5 5 3 4 5 5 4 4 4 4 6 7 6 2 4 5 6 7 8 9 10 10 8 7 6 6 6 6 7 10 13 13 15 16 17 18 18 19 19 20 19 18 18
4 4 6 7 6 5 7 7 6 5 6 6 8 7 3 3 6 7 8 8 9 10 10 9 8 7 6 5 5 6 7 10 12 13 14 16 17 18 18 19 19 19 19 18
3 4 5 4 3 3 4 6 7 6 7 9 10 8 3 6 8 8 9 10 10 10 10 9 8 7 6 6 5 6 6 8 9 10 13 14 16 17 18 19 18 18 18 18
4 6 8 10 8 5 7 9 9 9 9 12 15 16 14 12 11 11 11 10 10 10 10 10 9 8 8 7 6 6 6 6 7 9 11 13 15 16 17 18 17 18 18 17
4 7 10 15 15 13 15 16 15 16 16 15 18 19 18 16 14 13 11 11 11 10 10 10 9 9 9 8 7 6 6 5 5 8 9 11 12 14 14 15 16 16 17 17
4 7 8 13 14 15 18 20 20 20 20 20 20 21 18 16 13 12 11 11 10 10 10 10 10 9 9 8 8 7 6 6 5 6 8 9 10 11 12 13 13 14 15 15
5 5 6 10 11 11 14 16 17 16 15 15 18 17 14 13 12 11 11 11 10 10 10 10 9 9 9 8 8 8 7 6 5 6 7 7 8 9 11 11 12 13 14 15
8 7 5 7 7 11 8 4 8 12 13 13 13 13 12 12 11 10 9 10 10 10 9 9 9 9 9 9 8 8 7 6 6 6 6 6 7 8 9 11 12 12 12 13
13 9 6 5 9 13 11 8 7 9 11 11 12 12 11 11 10 9 7 8 9 10 9 9 9 9 8 8 8 8 7 7 6 6 6 6 7 8 9 10 12 11 11 12
11 11 8 7 8 9 7 2 3 5 8 6 8 9 8 7 8 8 8 9 10 10 9 9 9 9 8 8 7 7 7 7 7 6 6 6 7 8 9 10 10 10 11 11
7 8 12 13 11 10 8 3 4 6 5 2 5 7 7 8 9 10 10 10 10 10 10 9 9 8 8 8 7 7 7 8 8 7 7 6 7 8 9 9 9 9 9 10
10 8 10 9 10 11 4 5 7 7 4 5 7 8 9 11 11 11 11 10 10 10 10 9 9 9 8 8 7 8 8 8 7 7 7 7 7 6 6 8 8 9 10 11
11 11 7 10 10 7 6 9 8 8 9 9 9 10 10 12 12 12 11 11 10 10 10 9 9 9 9 8 7 8 9 8 7 7 7 6 6 6 7 8 8 8 9 9
8 9 9 11 14 14 12 12 12 12 12 12 11 11 11 13 13 12 11 11 10 10 9 9 9 9 9 9 8 8 8 8 7 7 6 5 5 6 6 6 7 7 8 9
10 8 10 15 16 15 14 14 14 14 13 13 13 12 12 13 13 13 11 11 10 10 9 8 9 10 10 10 10 9 7 6 7 6 6 5 4 5 6 5 6 7 7 8
12 13 12 13 13 12 13 13 13 13 14 13 13 13 13 12 13 13 12 11 10 10 9 9 9 10 10 10 10 9 7 6 6 5 4 4 4 4 4 4 3 3 5 6
Wind_Direction
237 240 257 264 259 272 271 266 269 275 278 272 270 271 274 266 251 247 247 250 247 244 242 233 225 217 212 207 203 199 198 197 191 188 184 184 187 187 189 190 190 190 191 191
260 258 269 268 266 271 269 269 272 282 283 278 278 276 271 261 247 244 244 245 248 245 239 231 222 214 210 208 205 202 200 198 195 194 190 191 189 190 191 190 194 195 195 194
268 292 287 266 267 272 271 268 276 287 295 282 284 278 264 255 250 247 246 245 245 241 235 229 221 216 212 210 207 203 201 201 198 196 189 185 184 185 191 195 196 198 197 197
268 286 278 270 272 276 277 274 277 281 279 282 274 283 277 266 253 248 245 245 244 239 236 231 223 219 217 213 208 204 201 202 201 196 192 188 191 195 198 195 196 197 198 199
271 281 285 275 276 272 267 283 273 272 269 274 261 260 270 266 257 253 247 246 248 243 239 236 227 224 223 217 208 204 202 202 202 199 195 194 201 204 199 195 196 197 198 201
270 272 276 277 280 271 269 281 273 258 251 252 249 249 267 254 262 268 261 254 251 246 239 237 233 230 230 219 210 205 204 204 202 202 200 199 202 202 198 196 196 197 198 201
292 253 249 264 284 258 231 274 281 246 230 249 256 253 258 282 288 279 278 276 282 270 251 242 240 231 233 222 213 208 206 206 205 203 204 203 204 204 202 199 199 197 199 200
306 290 258 261 251 263 240 239 255 274 270 285 269 248 260 324 321 312 310 316 318 309 285 265 251 238 234 227 216 211 209 209 207 206 207 206 205 205 206 204 202 201 202 203
284 287 298 273 267 243 237 231 264 273 279 271 252 262 278 307 328 339 342 344 338 329 318 296 276 261 251 240 225 217 212 211 209 209 208 209 206 206 206 205 204 205 206 204
262 280 281 283 259 234 240 267 240 232 261 265 263 266 271 308 327 343 347 343 338 334 327 320 305 286 269 253 242 228 220 215 213 210 209 210 208 208 207 205 205 206 205 203
235 266 284 264 236 249 224 225 233 237 251 269 272 270 292 307 328 331 332 332 332 332 328 322 316 305 288 271 249 236 230 222 217 214 210 210 210 209 208 207 208 207 206 203
231 254 271 265 267 266 242 238 232 243 249 254 271 272 296 296 321 327 327 330 331 330 330 325 318 317 310 294 267 248 239 232 225 217 213 212 210 208 208 209 209 207 207 205
219 232 277 264 218 208 236 239 238 254 264 255 257 262 289 303 315 321 324 328 331 332 334 333 329 324 317 307 295 272 252 244 234 224 218 215 210 208 209 210 209 206 205 204
242 230 238 261 281 277 262 254 245 241 251 257 254 267 279 292 301 308 313 318 322 328 332 333 331 328 323 314 302 289 280 264 246 230 221 219 214 211 210 209 207 205 202 201
238 253 251 261 270 268 264 263 256 245 247 255 265 269 276 285 292 296 301 308 312 321 327 331 328 326 325 324 313 303 296 288 267 237 226 224 219 213 211 210 207 204 202 200
234 257 266 267 266 265 266 263 258 252 251 254 262 267 275 282 285 287 295 303 307 314 320 323 323 320 321 321 319 309 300 294 279 251 233 228 221 213 209 208 206 202 201 198
227 241 263 272 279 279 264 256 248 245 244 249 255 264 281 282 281 284 291 298 301 308 315 319 319 317 314 314 313 307 298 290 275 259 243 234 223 214 210 206 203 200 199 195
228 229 247 272 273 251 261 266 251 251 254 251 254 268 278 282 283 284 292 297 301 307 310 312 314 314 312 308 308 305 298 287 274 261 252 240 225 216 210 205 203 201 198 196
222 223 235 246 260 271 272 257 241 244 259 251 253 264 275 283 283 279 292 301 301 303 305 307 310 310 309 308 307 302 294 286 276 261 255 244 228 217 209 205 204 201 196 195
212 219 232 235 250 260 272 244 226 243 261 246 247 260 276 285 276 286 309 309 305 303 304 306 308 309 309 311 311 300 290 283 279 275 265 250 230 218 211 207 204 199 196 194
190 211 224 236 246 261 269 231 184 227 262 227 241 258 272 272 273 293 301 302 304 303 304 307 305 305 307 310 312 302 291 283 283 284 276 255 232 222 214 207 202 196 192 189
201 204 213 222 235 251 215 179 215 253 281 257 262 270 276 280 283 288 294 298 303 303 304 307 305 305 308 308 308 304 296 293 289 282 273 252 233 221 212 202 198 192 186 185
216 216 221 220 236 258 219 223 246 267 269 270 271 276 278 281 281 285 288 293 297 299 299 302 302 302 305 307 304 300 301 302 294 282 269 253 235 217 206 199 193 187 185 184
230 227 236 248 253 257 258 258 264 265 266 271 274 278 278 278 279 282 285 287 290 293 296 299 299 300 303 306 302 297 300 301 290 278 266 247 226 212 203 196 191 188 188 184
233 214 233 249 260 269 261 259 265 270 270 272 275 275 275 277 276 278 282 282 283 286 290 292 291 294 298 302 300 299 301 299 289 278 263 244 223 210 204 197 195 195 198 191
230 227 234 249 256 258 269 272 272 269 268 270 273 275 274 271 273 274 275 276 277 279 284 287 286 288 292 296 296 297 299 293 286 278 267 243 218 206 198 188 177 166 179 167
Height
1467 1465 1459 1456 1457 1455 1451 1446 1443 1439 1438 1440 1436 1431 1426 1425 1425 1423 1423 1423 1423 1424 1426 1428 1430 1433 1435 1438 1442 1445 1449 1453 1458 1462 1465 1470 1475 1480 1485 1489 1493 1497 1500 1504
1462 1458 1456 1456 1456 1455 1451 1448 1441 1437 1437 1437 1431 1425 1421 1419 1418 1417 1417 1418 1418 1419 1421 1423 1424 1426 1429 1432 1435 1439 1444 1448 1452 1456 1460 1466 1471 1476 1481 1485 1489 1492 1496 1500
1459 1455 1455 1455 1453 1451 1447 1445 1441 1438 1435 1433 1430 1419 1413 1411 1412 1413 1413 1413 1413 1414 1416 1418 1419 1421 1423 1426 1429 1433 1437 1441 1446 1451 1456 1462 1467 1472 1476 1479 1483 1487 1491 1495
1457 1456 1455 1452 1450 1448 1444 1441 1442 1439 1437 1432 1430 1421 1407 1404 1406 1406 1407 1407 1408 1410 1412 1413 1414 1416 1418 1420 1424 1428 1432 1436 1441 1445 1450 1454 1459 1463 1467 1473 1478 1482 1487 1490
1455 1455 1454 1451 1448 1447 1443 1442 1441 1438 1435 1433 1426 1424 1405 1402 1402 1402 1403 1404 1404 1405 1407 1408 1410 1411 1413 1416 1419 1422 1427 1430 1435 1439 1444 1449 1454 1459 1465 1469 1473 1477 1481 1485
1455 1455 1454 1450 1447 1446 1444 1442 1437 1434 1433 1432 1418 1418 1404 1400 1401 1400 1400 1401 1402 1403 1404 1405 1406 1408 1410 1412 1414 1417 1421 1424 1428 1433 1438 1442 1448 1454 1459 1463 1467 1471 1475 1479
1451 1450 1451 1450 1446 1443 1443 1441 1436 1432 1429 1420 1412 1413 1403 1401 1402 1400 1399 1399 1400 1400 1401 1401 1402 1403 1405 1407 1409 1412 1415 1418 1422 1427 1431 1436 1442 1447 1452 1456 1461 1465 1469 1472
1454 1444 1447 1448 1446 1444 1441 1441 1439 1434 1423 1413 1414 1408 1401 1403 1402 1401 1400 1399 1399 1399 1398 1399 1399 1400 1401 1402 1404 1406 1409 1413 1417 1420 1425 1430 1436 1441 1446 1451 1455 1459 1462 1466
1456 1447 1446 1447 1447 1446 1441 1439 1438 1437 1429 1423 1409 1403 1401 1402 1401 1400 1400 1399 1398 1398 1397 1397 1397 1397 1397 1398 1400 1401 1404 1407 1410 1414 1419 1423 1429 1434 1438 1444 1449 1453 1457 1461
1460 1455 1446 1447 1447 1445 1443 1441 1440 1438 1432 1418 1406 1401 1399 1400 1400 1401 1401 1400 1399 1397 1396 1395 1395 1394 1394 1395 1396 1397 1399 1402 1405 1409 1413 1417 1422 1427 1432 1437 1442 1446 1450 1455
1460 1458 1447 1445 1443 1440 1442 1442 1439 1434 1431 1422 1409 1401 1400 1401 1402 1401 1401 1401 1399 1397 1395 1393 1393 1392 1392 1392 1392 1393 1395 1398 1401 1404 1407 1411 1416 1420 1425 1430 1435 1439 1444 1448
1458 1456 1448 1441 1440 1441 1440 1438 1437 1436 1431 1426 1416 1405 1401 1402 1402 1402 1401 1400 1398 1396 1394 1392 1391 1389 1389 1388 1389 1389 1391 1393 1395 1398 1402 1405 1410 1414 1418 1423 1428 1433 1437 1441
1456 1455 1446 1434 1439 1441 1440 1438 1438 1437 1433 1423 1416 1405 1400 1401 1401 1401 1401 1399 1397 1395 1393 1391 1389 1387 1386 1385 1386 1386 1387 1388 1390 1393 1396 1400 1404 1408 1412 1416 1421 1426 1430 1434
1453 1450 1446 1435 1429 1435 1437 1435 1435 1435 1429 1419 1411 1403 1400 1400 1400 1400 1400 1398 1396 1394 1392 1389 1388 1386 1384 1383 1383 1383 1383 1384 1386 1388 1390 1393 1397 1401 1405 1409 1414 1419 1423 1427
1450 1445 1441 1436 1433 1434 1433 1430 1428 1428 1423 1418 1406 1402 1398 1399 1399 1399 1398 1397 1395 1392 1390 1388 1386 1384 1382 1381 1380 1380 1380 1380 1381 1383 1385 1387 1391 1395 1399 1403 1407 1412 1416 1420
1447 1443 1438 1433 1429 1428 1426 1420 1417 1415 1413 1410 1406 1401 1399 1399 1398 1397 1396 1394 1392 1390 1388 1386 1384 1382 1380 1378 1377 1376 1376 1376 1377 1378 1380 1382 1386 1389 1393 1397 1401 1405 1409 1413
1444 1443 1438 1427 1424 1425 1417 1408 1406 1405 1403 1403 1400 1396 1395 1395 1395 1394 1394 1392 1390 1388 1386 1384 1382 1380 1378 1376 1375 1374 1374 1373 1374 1374 1376 1378 1380 1383 1386 1391 1395 1399 1402 1406
1440 1439 1436 1429 1427 1423 1402 1401 1401 1400 1399 1399 1397 1395 1394 1394 1392 1392 1391 1390 1387 1386 1384 1382 1380 1377 1376 1374 1372 1371 1370 1370 1370 1370 1372 1373 1375 1378 1381 1385 1388 1392 1396 1400
1434 1435 1432 1427 1419 1405 1398 1398 1399 1399 1395 1393 1393 1392 1392 1391 1389 1388 1387 1387 1385 1383 1381 1379 1377 1375 1373 1371 1369 1368 1367 1366 1366 1366 1367 1368 1370 1373 1376 1379 1383 1387 1391 1394
1430 1431 1430 1424 1419 1405 1391 1395 1396 1398 1391 1389 1389 1389 1389 1388 1386 1383 1384 1383 1382 1380 1378 1376 1374 1372 1370 1368 1366 1364 1363 1362 1362 1362 1363 1365 1366 1369 1371 1374 1377 1381 1385 1389
1426 1426 1424 1419 1412 1396 1391 1394 1396 1396 1386 1387 1387 1387 1387 1386 1385 1383 1381 1380 1378 1376 1374 1372 1370 1368 1366 1364 1363 1361 1360 1359 1359 1359 1359 1361 1362 1364 1367 1370 1373 1376 1380 1384
1412 1412 1413 1411 1407 1396 1389 1392 1391 1385 1385 1385 1385 1384 1383 1382 1381 1380 1378 1376 1374 1372 1370 1368 1366 1364 1363 1361 1359 1357 1356 1355 1355 1355 1355 1357 1358 1360 1363 1365 1368 1372 1375 1379
1402 1399 1396 1396 1389 1384 1385 1385 1384 1384 1383 1382 1382 1381 1380 1378 1376 1375 1374 1372 1370 1369 1367 1365 1363 1361 1359 1358 1356 1354 1352 1351 1351 1351 1351 1352 1354 1356 1358 1361 1363 1366 1370 1373
1394 1395 1393 1389 1382 1381 1382 1381 1381 1380 1379 1378 1378 1376 1375 1373 1372 1370 1369 1368 1366 1364 1363 1361 1359 1357 1355 1354 1353 1351 1349 1348 1347 1347 1347 1349 1350 1351 1354 1356 1359 1361 1364 1368
1385 1388 1386 1381 1377 1377 1375 1375 1375 1374 1374 1373 1372 1371 1369 1368 1367 1366 1364 1362 1361 1359 1358 1357 1355 1353 1351 1350 1348 1347 1346 1344 1344 1343 1344 1345 1346 1348 1349 1352 1354 1357 1360 1363
1377 1378 1377 1371 1370 1371 1368 1369 1369 1369 1367 1367 1366 1364 1363 1363 1361 1360 1358 1357 1356 1354 1353 1352 1350 1349 1347 1345 1344 1343 1342 1341 1340 1340 1340 1342 1343 1344 1346 1348 1351 1354 1357 1361